Regional Weather Roundup
Issued by NWS

Home | Current Version | Previous Version | Graphics & Text | Print | Product List | Glossary On
Versions: 1 2 3 4 5 6 7 8 9 10 11 12 13 14 15 16 17 18 19 20 21 22 23 24 25 26 27 28 29 30 31 32 33 34 35 36 37 38 39 40 41 42 43 44 45 46 47 48 49 50
000
ASUS43 KMKX 190911
RWRWI

WISCONSIN REGIONAL WEATHER ROUNDUP
NATIONAL WEATHER SERVICE MILWAUKEE/SULLIVAN WI
400 AM CDT THU OCT 19 2017

NOTE: "FAIR" INDICATES FEW OR NO CLOUDS BELOW 12,000 FEET WITH NO
SIGNIFICANT WEATHER AND/OR OBSTRUCTIONS TO VISIBILITY.

WIZ001-002-006>008-014>016-023>028-191000-
NORTHWEST WISCONSIN

CITY           SKY/WX    TMP DP  RH WIND       PRES   REMARKS
SUPERIOR ARPT  CLOUDY    46  25  44 SW10      29.94R
ASHLAND        CLOUDY    47  24  40 SW12      29.93R
HAYWARD        CLOUDY    46  25  43 SW6       29.97S
SIREN          CLOUDY    43  28  55 SW6       30.00S
CUMBERLAND     PTCLDY    41  27  56 W3        30.01S
RICE LAKE      PTCLDY    37  31  78 CALM      30.02S
CHETEK         PTCLDY    40  30  67 CALM      30.01S
LADYSMITH      PTCLDY    43  28  53 W5        30.01S
EAU CLAIRE     PTCLDY    40  30  67 CALM      30.02R
MENOMONIE      PTCLDY    47  29  50 W5        30.03R
NEW RICHMOND   CLOUDY    41  31  68 CALM      30.02S
OSCEOLA        CLOUDY    38  32  81 CALM      30.04S
$$

WIZ003>005-009-010-017-018-191000-
NORTH CENTRAL WISCONSIN

CITY           SKY/WX    TMP DP  RH WIND       PRES   REMARKS
MANITOWISH WTR CLOUDY    45  21  38 W9        29.93S
ARBOR VITAE    CLOUDY    47  22  37 W6        29.93F
WOODRUFF       CLOUDY    47  22  37 W6        29.93F
RHINELANDER    PTCLDY    40  24  53 W9        29.95R WCI  34
EAGLE RIVER    PTCLDY    47  17  29 W10       29.92S
LAND O LAKES   CLOUDY    44  19  37 W5        29.93S
PHILLIPS       CLOUDY    42  25  50 SW3       29.96S
TOMAHAWK       PTCLDY    43  21  41 W5        29.97S
MEDFORD        PTCLDY    42  26  54 SW3       29.99R
MERRILL        CLOUDY    43  25  49 W7        29.98S
$$

WIZ029-030-035-036-043>047-191000-
CENTRAL WISCONSIN

CITY           SKY/WX    TMP DP  RH WIND       PRES   REMARKS
WAUSAU         PTCLDY    47  27  45 NW8       29.98R
MOSINEE        CLOUDY    43  28  56 W8        30.00S
MARSHFIELD     CLOUDY    44  27  51 W6        30.00S
STEVENS POINT  CLOUDY    47  26  43 W7        30.01S
WAUPACA        CLOUDY    49  29  45 W7        30.01R
WAUTOMA        CLOUDY    48  28  46 W6        30.03R
WISC RAPIDS    CLOUDY    47  27  45 W5        30.03R
CAMP DOUGLAS   CLOUDY    43  27  54 W6        30.03S
$$

WIZ011>013-019>022-031-037>040-048>050-191000-
NORTHEAST WISCONSIN

CITY           SKY/WX    TMP DP  RH WIND       PRES   REMARKS
ANTIGO         CLOUDY    42  26  52 W7        29.97R
SHAWANO        CLOUDY    52  25  35 SW3       29.97R
OCONTO         PTCLDY    50  26  39 W6        29.95R
STURGEON BAY   CLOUDY    55  31  39 W9        29.96R
GREEN BAY      CLOUDY    51  31  46 W6        29.98R
MANITOWOC      CLOUDY    54  31  41 W10       29.98R
APPLETON       CLOUDY    46  27  46 W7        29.99R
CLINTONVILLE   CLOUDY    50  25  37 W6        29.98
OSHKOSH        CLOUDY    51  30  44 W6        30.01R
$$

WIZ032>034-041-042-053>061-191000-
SOUTHWEST WISCONSIN

CITY           SKY/WX    TMP DP  RH WIND       PRES   REMARKS
LA CROSSE      CLOUDY    46  38  73 SE3       30.05S
SPARTA         CLOUDY    37  32  84 CALM      30.06S
VIROQUA        CLOUDY    47  30  51 NW3       30.06S
BOSCOBEL       CLOUDY    43  39  86 CALM      30.08R FOG
PRAIRIE DU CHI PTCLDY    45  39  79 CALM      30.07R
PLATTEVILLE    CLOUDY    51  43  76 NW3       30.07R
$$

WIZ056-057-062-063-064-067-068-191000-
SOUTH CENTRAL WISCONSIN

CITY           SKY/WX    TMP DP  RH WIND       PRES   REMARKS
REEDSBURG      CLOUDY    47  32  55 CALM      30.05S
BARABOO/DELLS  CLOUDY    46  30  52 W3        30.05S
LONE ROCK      CLOUDY    45  40  82 CALM      30.07R
MINERAL POINT  CLOUDY    50  39  66 NW5       30.07R
MADISON        CLOUDY    47  43  86 CALM      30.05R
MIDDLETON      CLOUDY    48  37  64 CALM      30.06R
WATERTOWN      CLOUDY    51  43  73 CALM      30.04R
MONROE         CLOUDY    52  43  71 NW10      30.05S
JANESVILLE     CLOUDY    52  45  76 NW3       30.05R
$$

WIZ051-052-058>065-066-070>072-191000-
SOUTHEAST WISCONSIN

CITY           SKY/WX    TMP DP  RH WIND       PRES   REMARKS
MILWAUKEE      CLOUDY    59  45  59 NW10      30.02R
WAUKESHA       CLOUDY    52  34  50 NW14      30.04R
MILWAUKEE/TIMM CLOUDY    54  37  54 W8        30.03R
RACINE         CLOUDY    57  45  64 W6        30.04R
BURLINGTON     CLOUDY    53  46  77 W3        30.04R
KENOSHA        PTCLDY    54  44  69 W7        30.03R
FOND DU LAC    CLOUDY    52  28  39 W7        30.02R
SHEBOYGAN      CLOUDY    54  33  45 W9        30.00R
WEST BEND      CLOUDY    54  32  43 W12       30.02R
JUNEAU         CLOUDY    52  26  37 CALM      30.05R
$$

LSZ147-162-191000-
LAKE SUPERIOR

STATION/POSITION TIME  TEMP    WIND        PRES    WAVE
                       AIR SEA DIR/SP/G            HT/PER
                 (UTC) (F)     (DEG/KT/KT) (MB)    (FT/S)
W MID LAKE BUOY  0750   54 52              1008.9R   6/ 6
DEVILS ISLAND    0900   54     250/ 25/ 31 1011.6R
SAXON HARBOR     0840   53     220/  9/ 15 1012.5S
$$

LMZ867-665-643>646-191000-
LAKE MICHIGAN

STATION/POSITION TIME  TEMP    WIND        PRES    WAVE
                       AIR SEA DIR/SP/G            HT/PER
                 (UTC) (F)     (DEG/KT/KT) (MB)    (FT/S)
S GREEN BAY BUOY 0900   57 58  270/ 12/ 16 1014.3
N MID LAKE BUOY  0850   59 58  290/ 17/ 21 1012.4R   6/ 8
NORTHPORT PIER   0840   58     290/  7/ 14 1012.9R
KEWAUNEE LAKESHO 0842   56     280/  5/  9 1013.6R
SHEBOYGAN LAKESH 0900   58     290/ 12/ 14 1015.5R
PORT WASHINGTON  0830   59     290/  9/ 19 1016.6R
MILWAUKEE LAKESH 0850   59     290/ 11/ 13   N/A
S MID LAKE BUOY  0750   62 61  260/ 17/ 19 1015.7R   4/ 6
KENOSHA   LAKESH 0900   58     270/  5/  8 1016.9
$$

TC  - TEMPERATURE IN CELSIUS
VSB - VISIBILITY IN STATUTE MILES
WCI - WIND CHILL INDEX
HX  - HEAT INDEX





USA.gov is the U.S. government's official web portal to all federal, state and local government web resources and services.